When you browse on this site, cookies collect data to enhance your experience and personalize the content and advertising you see.
Visit our Privacy Policy to learn more. By continuing to use the site, you agree to this use of cookies and data.
  • In Hungary
  • List of Countries
  • For 7 days
  • Water Temperature
  • Satellite Maps
  • Weather Map
  • News
  • Weather Widgets
  • user-avatar
    Login

    Hourly Weather Reykjavík

    Today, 20 March, Wednesday

    Time Temperature Precipitation Wind Pressure Humidity
    00:00 -4°C° 0.2 mm 13 mps 744 mmHg 73%
    01:00 -5°C° 0.2 mm 14 mps 744 mmHg 73%
    02:00 -6°C° 0.2 mm 14 mps 745 mmHg 73%
    03:00 -6°C° 0.3 mm 14 mps 745 mmHg 74%
    04:00 -6°C° 0.3 mm 14 mps 746 mmHg 75%
    05:00 -6°C° 0 mm 13 mps 745 mmHg 74%
    06:00 -6°C° 0.3 mm 13 mps 746 mmHg 73%
    07:00 -6°C° 0.3 mm 13 mps 746 mmHg 72%
    08:00 -6°C° 0.3 mm 13 mps 746 mmHg 71%
    09:00 -6°C° 0.2 mm 13 mps 746 mmHg 69%
    10:00 -6°C° 0.2 mm 13 mps 746 mmHg 67%
    11:00 -6°C° 0.2 mm 13 mps 746 mmHg 65%
    12:00 -6°C° 0.2 mm 13 mps 747 mmHg 65%
    13:00 -6°C° 0.2 mm 13 mps 747 mmHg 65%
    14:00 -6°C° 0.2 mm 13 mps 747 mmHg 64%
    15:00 -6°C° 0.2 mm 13 mps 748 mmHg 66%
    16:00 -7°C° 0.2 mm 13 mps 748 mmHg 67%
    17:00 -7°C° 0.2 mm 13 mps 748 mmHg 68%
    18:00 -7°C° 0.2 mm 13 mps 749 mmHg 67%
    19:00 -7°C° 0.2 mm 13 mps 749 mmHg 67%
    20:00 -7°C° 0.2 mm 13 mps 749 mmHg 66%
    21:00 -7°C° 0.2 mm 13 mps 750 mmHg 65%
    22:00 -7°C° 0.2 mm 13 mps 750 mmHg 64%
    23:00 -6°C° 0.2 mm 13 mps 750 mmHg 63%

    Tomorrow, 21 March, Thursday

    Time Temperature Precipitation Wind Pressure Humidity
    00:00 -7°C° 0.2 mm 12 mps 750 mmHg 65%
    01:00 -7°C° 0.2 mm 11 mps 751 mmHg 66%
    02:00 -7°C° 0.2 mm 10 mps 751 mmHg 68%
    03:00 -6°C° 0.2 mm 9 mps 751 mmHg 68%
    04:00 -5°C° 0.2 mm 9 mps 751 mmHg 67%
    05:00 -5°C° 0.2 mm 9 mps 751 mmHg 67%
    06:00 -5°C° 0.2 mm 9 mps 751 mmHg 67%
    07:00 -4°C° 0.2 mm 9 mps 751 mmHg 66%
    08:00 -4°C° 0.2 mm 9 mps 751 mmHg 66%
    09:00 -4°C° 0.3 mm 10 mps 751 mmHg 65%
    10:00 -3°C° 0.3 mm 10 mps 751 mmHg 64%
    11:00 -3°C° 0.3 mm 10 mps 751 mmHg 63%
    12:00 -3°C° 0.2 mm 10 mps 751 mmHg 62%
    13:00 -1°C° 0.2 mm 9 mps 751 mmHg 62%
    14:00 -1°C° 0.2 mm 9 mps 751 mmHg 61%
    15:00 -3°C° 0.2 mm 9 mps 750 mmHg 65%
    16:00 -2°C° 0.2 mm 8 mps 750 mmHg 69%
    17:00 -2°C° 0.2 mm 7 mps 750 mmHg 73%
    18:00 -2°C° 0.3 mm 7 mps 749 mmHg 75%
    19:00 -3°C° 0.3 mm 6 mps 749 mmHg 77%
    20:00 -2°C° 0.3 mm 5 mps 749 mmHg 79%
    21:00 -2°C° 0.2 mm 5 mps 748 mmHg 80%
    22:00 -2°C° 0.2 mm 5 mps 747 mmHg 80%
    23:00 -2°C° 0.2 mm 4 mps 746 mmHg 81%

    Day after tomorrow, 22 March, Friday

    Time Temperature Precipitation Wind Pressure Humidity
    00:00 -2°C° 0.2 mm 4 mps 745 mmHg 82%
    01:00 -3°C° 0.2 mm 4 mps 744 mmHg 83%
    02:00 -2°C° 0.2 mm 3 mps 744 mmHg 84%
    03:00 -2°C° 0.4 mm 3 mps 743 mmHg 85%
    04:00 -2°C° 0.4 mm 3 mps 742 mmHg 86%
    05:00 -4°C° 0.4 mm 3 mps 741 mmHg 87%
    06:00 -4°C° 0.3 mm 3 mps 740 mmHg 88%
    07:00 -4°C° 0.3 mm 3 mps 739 mmHg 89%
    08:00 -4°C° 0.3 mm 3 mps 739 mmHg 90%
    09:00 -2°C° 0.6 mm 3 mps 738 mmHg 90%
    10:00 -2°C° 0.6 mm 3 mps 738 mmHg 90%
    11:00 -1°C° 0.6 mm 3 mps 738 mmHg 89%
    12:00 -4°C° 0.9 mm 7 mps 739 mmHg 89%
    13:00 -6°C° 0.9 mm 12 mps 740 mmHg 89%
    14:00 -7°C° 0.9 mm 16 mps 741 mmHg 89%
    15:00 -8°C° 0.2 mm 15 mps 743 mmHg 84%
    16:00 -7°C° 0.2 mm 13 mps 744 mmHg 78%
    17:00 -8°C° 0.2 mm 12 mps 746 mmHg 72%
    18:00 -8°C° 0.3 mm 12 mps 747 mmHg 70%
    19:00 -8°C° 0.3 mm 12 mps 748 mmHg 68%
    20:00 -8°C° 0.3 mm 11 mps 749 mmHg 66%
    21:00 -8°C° 0.2 mm 11 mps 749 mmHg 70%
    22:00 -8°C° 0.2 mm 10 mps 749 mmHg 75%
    23:00 -6°C° 0.2 mm 9 mps 749 mmHg 79%

    23 March, Saturday

    Time Temperature Precipitation Wind Pressure Humidity
    00:00 -6°C° 0.3 mm 9 mps 748 mmHg 73%
    01:00 -5°C° 0.3 mm 10 mps 748 mmHg 67%
    02:00 -5°C° 0.3 mm 10 mps 747 mmHg 60%
    03:00 -6°C° 0 mm 11 mps 746 mmHg 68%
    04:00 -5°C° 0 mm 12 mps 745 mmHg 75%
    05:00 -5°C° 0 mm 13 mps 744 mmHg 82%
    06:00 -3°C° 0.9 mm 11 mps 743 mmHg 78%
    07:00 -2°C° 0.9 mm 10 mps 743 mmHg 74%
    08:00 -1°C° 0.9 mm 9 mps 742 mmHg 70%
    09:00 -2°C° 0.5 mm 11 mps 741 mmHg 71%
    10:00 -2°C° 0.5 mm 13 mps 741 mmHg 72%
    11:00 -3°C° 0.5 mm 15 mps 740 mmHg 72%
    12:00 -4°C° 0.3 mm 15 mps 740 mmHg 74%
    13:00 -4°C° 0.3 mm 14 mps 741 mmHg 75%
    14:00 -5°C° 0.3 mm 13 mps 741 mmHg 77%
    15:00 -6°C° 0.4 mm 13 mps 741 mmHg 74%
    16:00 -6°C° 0.4 mm 13 mps 741 mmHg 71%
    17:00 -7°C° 0.4 mm 13 mps 741 mmHg 69%
    18:00 -7°C° 0.2 mm 13 mps 742 mmHg 69%
    19:00 -9°C° 0.2 mm 14 mps 742 mmHg 69%
    20:00 -9°C° 0.2 mm 14 mps 742 mmHg 69%
    21:00 -9°C° 0.2 mm 14 mps 743 mmHg 66%
    22:00 -10°C° 0.2 mm 15 mps 743 mmHg 64%
    23:00 -10°C° 0.2 mm 15 mps 744 mmHg 62%

    24 March, Sunday

    Time Temperature Precipitation Wind Pressure Humidity
    00:00 -10°C° 0.3 mm 15 mps 744 mmHg 65%
    01:00 -10°C° 0.3 mm 14 mps 745 mmHg 69%
    02:00 -10°C° 0.3 mm 14 mps 745 mmHg 73%
    03:00 -10°C° 0.2 mm 14 mps 747 mmHg 73%
    04:00 -9°C° 0.2 mm 14 mps 749 mmHg 73%
    05:00 -9°C° 0.2 mm 14 mps 750 mmHg 73%
    06:00 -10°C° 0.1 mm 13 mps 753 mmHg 73%
    07:00 -10°C° 0.1 mm 12 mps 755 mmHg 74%
    08:00 -11°C° 0.1 mm 11 mps 758 mmHg 74%
    09:00 -10°C° 0 mm 10 mps 760 mmHg 73%
    10:00 -10°C° 0 mm 8 mps 761 mmHg 72%
    11:00 -9°C° 0 mm 7 mps 763 mmHg 72%
    12:00 -8°C° 0 mm 6 mps 764 mmHg 71%
    13:00 -7°C° 0 mm 5 mps 765 mmHg 71%
    14:00 -7°C° 0 mm 4 mps 766 mmHg 71%
    15:00 -7°C° 0 mm 4 mps 766 mmHg 72%
    16:00 -7°C° 0 mm 4 mps 767 mmHg 73%
    17:00 -7°C° 0 mm 3 mps 767 mmHg 75%
    18:00 -8°C° 0 mm 3 mps 768 mmHg 75%
    19:00 -9°C° 0 mm 4 mps 768 mmHg 76%
    20:00 -10°C° 0 mm 4 mps 769 mmHg 77%
    21:00 -10°C° 0 mm 4 mps 769 mmHg 75%
    22:00 -11°C° 0 mm 5 mps 769 mmHg 72%
    23:00 -11°C° 0 mm 5 mps 769 mmHg 70%

    25 March, Monday

    Time Temperature Precipitation Wind Pressure Humidity
    00:00 -11°C° 0 mm 6 mps 768 mmHg 68%
    01:00 -10°C° 0 mm 6 mps 768 mmHg 67%
    02:00 -11°C° 0 mm 7 mps 767 mmHg 65%
    03:00 -9°C° 0.1 mm 7 mps 767 mmHg 69%
    04:00 -10°C° 0.1 mm 8 mps 766 mmHg 73%
    05:00 -9°C° 0.1 mm 9 mps 766 mmHg 77%
    06:00 -9°C° 0.3 mm 9 mps 765 mmHg 81%
    07:00 -8°C° 0.3 mm 10 mps 765 mmHg 86%
    08:00 -8°C° 0.3 mm 10 mps 765 mmHg 91%
    09:00 -7°C° 0.4 mm 10 mps 765 mmHg 91%
    10:00 -4°C° 0.4 mm 10 mps 764 mmHg 92%
    11:00 -3°C° 0.4 mm 10 mps 764 mmHg 93%
    12:00 -1°C° 0.4 mm 9 mps 764 mmHg 94%
    13:00 0°C° 0.4 mm 8 mps 763 mmHg 96%
    14:00 +2°C° 0.4 mm 7 mps 763 mmHg 98%
    15:00 +2°C° 0.4 mm 7 mps 763 mmHg 98%
    16:00 +1°C° 0.4 mm 8 mps 762 mmHg 98%
    17:00 +2°C° 0.4 mm 8 mps 762 mmHg 98%
    18:00 +2°C° 0.8 mm 8 mps 761 mmHg 98%
    19:00 +2°C° 0.8 mm 8 mps 761 mmHg 99%
    20:00 +3°C° 0.8 mm 9 mps 760 mmHg 99%
    21:00 +3°C° 0.3 mm 9 mps 759 mmHg 98%
    22:00 +3°C° 0.3 mm 10 mps 759 mmHg 98%
    23:00 +3°C° 0.3 mm 11 mps 758 mmHg 98%
    Show more